Date,TemperatureHighF,TemperatureAvgF,TemperatureLowF,DewpointHighF,DewpointAvgF,DewpointLowF,HumidityHigh,HumidityAvg,HumidityLow,PressureMaxIn,PressureMinIn,WindSpeedMaxMPH,WindSpeedAvgMPH,GustSpeedMaxMPH,PrecipitationSumIn
2013-1-1,31.0,26.4,17.0,29.0,24.9,17.0,100,94,79,30.21,30.08,12,4,12,0.02
2013-1-2,27.0,16.8,10.0,25.0,14.5,10.0,100,92,61,30.30,30.19,8,1,8,0.00
2013-1-3,30.0,20.3,7.0,22.5,15.7,7.0,100,83,53,30.35,30.23,18,5,18,0.00
2013-1-4,30.0,25.8,22.0,23.6,20.1,16.6,92,79,62,30.39,30.31,23,8,24,0.00
2013-1-5,39.0,28.5,18.0,27.5,23.5,18.0,100,83,60,30.42,30.21,12,4,13,0.10
2013-1-6,36.0,30.0,23.0,31.2,26.5,20.5,97,87,82,30.40,30.07,16,6,17,0.12
2013-1-7,40.0,26.6,18.0,28.0,22.7,18.0,100,87,57,30.53,30.31,11,3,12,0.04
2013-1-8,49.0,32.5,21.0,33.5,26.4,20.5,100,79,51,30.36,30.26,15,5,16,0.06
2013-1-9,49.0,41.0,34.0,41.3,34.1,29.4,99,77,57,30.55,30.25,18,6,18,0.03
2013-1-10,43.0,33.9,25.0,37.2,31.0,25.0,100,90,77,30.57,30.15,16,4,17,0.08
2013-1-11,58.0,51.4,43.0,55.0,48.1,37.2,100,89,74,30.15,29.93,21,6,24,0.46
2013-1-12,62.0,54.8,49.0,59.2,53.5,46.5,100,96,81,30.06,29.96,12,5,13,0.00
2013-1-13,56.0,39.5,33.0,56.0,39.5,32.8,100,100,99,30.17,29.85,21,10,22,0.75
2013-1-14,33.0,22.9,19.0,33.0,21.8,18.8,100,95,82,30.51,30.17,18,6,18,0.00
2013-1-15,29.0,24.0,17.0,24.9,21.7,17.0,100,91,79,30.44,30.12,13,4,14,0.00
2013-1-16,33.0,29.1,27.0,28.6,25.8,23.3,97,88,69,30.14,30.02,15,4,16,0.01
2013-1-17,40.0,29.7,22.0,29.8,24.3,17.6,97,81,60,30.44,30.14,17,5,19,0.00
2013-1-18,36.0,25.9,15.0,23.3,17.7,14.4,100,74,44,30.57,30.26,19,6,20,0.00
2013-1-19,51.0,41.8,32.0,28.0,24.6,21.8,68,51,35,30.27,29.94,28,8,28,0.00
2013-1-20,44.0,29.2,20.0,33.6,15.9,6.6,77,58,40,30.27,29.94,32,9,33,0.00
2013-1-21,20.0,15.6,6.0,18.0,9.4,-2.0,100,76,56,30.31,30.13,27,10,30,0.00
2013-1-22,14.0,7.6,1.0,4.2,-0.1,-2.6,94,71,49,30.43,30.30,21,8,21,0.00
2013-1-23,17.0,12.8,6.0,14.3,6.2,-0.3,96,75,53,30.39,30.15,14,4,15,0.00
2013-1-24,20.0,14.2,8.0,16.0,7.7,0.2,100,77,44,30.62,30.16,20,6,22,0.00
2013-1-25,22.0,18.2,14.0,20.8,14.2,6.6,100,85,63,30.49,30.09,16,5,16,0.00
2013-1-26,29.0,20.8,15.0,20.8,17.1,14.6,100,86,60,30.50,30.17,14,4,15,0.04
2013-1-27,34.0,24.4,13.0,32.0,21.2,13.0,100,88,67,30.50,30.21,14,4,15,0.26
2013-1-28,49.0,43.8,32.0,49.0,43.5,32.0,100,99,91,30.21,30.05,18,6,21,0.34
2013-1-29,62.0,55.2,48.0,57.4,52.5,48.0,100,91,77,30.08,29.62,27,8,28,0.03
2013-1-30,64.0,50.5,29.0,58.1,47.1,24.0,100,89,77,29.62,29.31,40,11,40,1.11
2013-1-31,29.0,22.4,12.0,25.4,17.3,8.9,100,81,64,30.08,29.60,36,13,38,0.00
2013-2-1,14.0,6.8,2.0,9.1,3.9,-0.5,100,88,72,30.44,30.08,25,8,33,0.00
2013-2-2,27.0,18.5,6.0,25.5,17.8,6.0,100,97,85,30.39,30.03,18,6,18,0.01
2013-2-3,23.0,17.0,12.0,22.5,14.8,9.0,100,91,78,30.18,30.00,18,8,19,0.00
2013-2-4,31.0,23.0,13.0,31.0,21.4,13.0,100,94,71,30.18,29.87,15,4,16,0.01
2013-2-5,33.0,28.3,22.0,31.0,26.2,21.7,100,92,75,30.04,29.89,18,5,19,0.04
2013-2-6,36.0,29.3,22.0,29.5,25.0,20.3,100,84,63,30.32,30.04,17,4,18,0.00
2013-2-7,56.0,38.5,25.0,38.2,30.4,23.3,100,75,44,30.27,29.84,14,4,16,0.00
2013-2-8,48.0,33.5,25.0,43.0,29.6,20.0,100,86,58,30.37,29.82,25,10,29,0.16
2013-2-9,39.0,25.9,15.0,22.4,19.2,14.0,100,78,42,30.49,30.30,10,2,11,0.00
2013-2-10,50.0,39.1,24.0,43.4,28.3,19.6,94,67,40,30.30,29.83,23,6,26,0.02
2013-2-11,49.0,43.1,34.0,48.5,34.0,25.1,100,72,51,30.09,29.79,31,11,31,0.00
2013-2-12,47.0,34.6,25.0,27.5,24.6,21.0,96,69,38,30.19,29.97,19,5,22,0.00
2013-2-13,34.0,27.3,24.0,29.1,26.3,22.1,100,96,70,29.98,29.83,11,4,11,0.04
2013-2-14,49.0,35.1,26.0,37.3,30.9,26.0,100,86,57,30.04,29.83,21,7,21,0.02
2013-2-15,37.0,29.1,20.0,31.6,27.1,19.5,100,93,72,30.21,30.03,23,5,23,0.00
2013-2-16,23.0,17.9,13.0,21.0,15.4,10.5,100,91,67,30.21,30.09,21,6,21,0.00
2013-2-17,28.0,17.3,9.0,14.0,9.6,3.4,100,74,43,30.28,30.18,15,5,17,0.00
2013-2-18,55.0,37.5,17.0,38.5,22.3,8.9,86,55,38,30.27,29.78,27,8,28,0.06
2013-2-19,42.0,28.3,20.0,40.7,24.4,13.7,100,85,68,30.15,29.69,32,13,32,0.16
2013-2-20,21.0,17.5,13.0,18.0,13.1,9.0,100,83,68,30.36,30.15,22,9,24,0.00
2013-2-21,26.0,21.2,17.0,22.8,17.5,13.0,94,85,72,30.41,30.12,20,6,20,0.00
2013-2-22,39.0,31.2,25.0,38.0,30.7,22.2,100,98,89,30.13,29.94,19,5,20,0.06
2013-2-23,40.0,31.6,27.0,32.0,26.3,22.8,100,82,54,30.04,29.93,14,5,14,0.00
2013-2-24,37.0,27.5,22.0,24.5,21.7,18.8,100,80,54,30.22,29.99,16,5,19,0.00
2013-2-25,42.0,30.3,17.0,26.5,22.8,17.0,100,76,51,30.25,29.98,16,4,17,0.00
2013-2-26,43.0,37.0,30.0,43.0,34.4,22.9,100,91,66,29.98,29.43,20,7,24,0.63
2013-2-27,40.0,33.8,29.0,40.0,33.2,29.0,100,98,89,29.77,29.55,22,8,24,0.05
2013-2-28,33.0,30.3,28.0,32.2,30.1,28.0,100,99,92,29.99,29.73,18,8,19,0.04
2013-3-1,34.0,29.9,25.0,31.0,28.2,21.6,100,93,79,30.10,29.97,15,5,15,0.00
2013-3-2,25.0,23.4,22.0,22.2,20.1,17.2,97,87,78,30.13,30.07,14,6,14,0.00
2013-3-3,28.0,23.9,21.0,22.0,18.9,14.4,100,82,61,30.15,30.08,17,6,18,0.00
2013-3-4,43.0,28.8,15.0,31.0,21.0,15.0,100,76,37,30.22,30.06,10,3,10,0.02
2013-3-5,34.0,31.0,29.0,33.0,30.3,28.7,100,97,84,30.08,29.64,17,6,19,0.31
2013-3-6,30.0,27.1,24.0,30.0,27.0,24.0,100,100,96,30.29,29.67,20,8,20,0.09
2013-3-7,36.0,30.0,27.0,30.7,27.4,22.0,100,90,74,30.42,30.27,15,5,15,0.27
2013-3-8,46.0,30.8,19.0,28.9,22.0,18.2,100,73,37,30.52,30.39,9,2,10,0.02
2013-3-9,53.0,38.6,25.0,35.9,29.3,22.2,100,72,48,30.44,30.07,14,4,15,0.00
2013-3-10,66.0,56.4,48.0,41.0,34.2,30.2,61,44,29,30.07,29.87,19,7,22,0.04
2013-3-11,55.0,44.9,35.0,51.0,42.0,30.7,100,90,59,29.91,29.63,26,8,27,1.12
2013-3-12,41.0,33.4,30.0,31.5,28.7,25.9,100,84,59,30.10,29.90,22,8,22,0.01
2013-3-13,30.0,25.7,23.0,30.0,22.9,17.5,100,89,68,30.36,30.04,29,10,29,0.00
2013-3-14,41.0,29.0,18.0,22.3,18.9,13.3,100,70,38,30.39,30.20,17,5,17,0.00
2013-3-15,48.0,37.8,26.0,37.9,31.7,20.9,100,80,58,30.21,29.83,15,4,15,0.00
2013-3-16,55.0,41.4,32.0,49.9,38.7,30.2,100,91,74,30.09,29.65,20,7,21,0.09
2013-3-17,35.0,31.7,30.0,30.7,27.7,24.6,95,85,74,30.21,30.03,17,5,17,0.02
2013-3-18,48.0,37.3,29.0,48.0,36.4,29.0,100,97,83,30.05,29.64,29,8,29,1.13
2013-3-19,39.0,32.7,24.0,33.5,20.4,11.5,94,63,35,30.14,29.87,36,12,36,0.00
2013-3-20,32.0,26.6,20.0,19.5,15.1,8.3,78,62,47,30.14,29.99,25,9,27,0.00
2013-3-21,28.0,21.0,15.0,16.1,13.6,8.4,100,74,51,30.09,30.00,21,7,21,0.00
2013-3-22,43.0,28.7,16.0,20.6,16.2,13.1,95,62,35,30.13,30.01,14,3,14,0.00
2013-3-23,49.0,35.1,24.0,26.3,20.6,15.1,89,59,30,30.12,29.94,12,2,14,0.00
2013-3-24,33.0,30.3,28.0,31.0,27.4,22.6,100,90,68,29.95,29.49,21,5,23,0.06
2013-3-25,30.0,28.0,26.0,30.0,28.0,26.0,100,100,100,29.99,29.49,18,5,19,0.28
2013-3-26,36.0,30.8,27.0,30.1,27.6,24.5,100,88,66,30.27,29.99,19,8,19,0.12
2013-3-27,39.0,32.1,26.0,30.1,24.9,21.4,98,76,52,30.35,30.26,18,7,19,0.00
2013-3-28,47.0,35.5,24.0,28.9,23.9,20.4,89,64,42,30.38,30.29,18,5,18,0.00
2013-3-29,53.0,39.5,23.0,38.7,27.8,21.3,100,66,37,30.37,30.21,17,2,19,0.00
2013-3-30,59.0,44.3,27.0,38.2,29.6,22.9,100,61,33,30.30,29.97,14,3,14,0.00
2013-3-31,55.0,46.6,43.0,47.0,40.7,31.2,100,81,55,29.98,29.79,20,5,25,0.05
2013-4-1,45.0,37.3,28.0,40.5,24.7,15.3,99,62,37,30.19,29.83,21,8,21,0.00
2013-4-2,42.0,31.4,20.0,23.2,16.0,11.8,88,55,31,30.33,30.18,18,5,20,0.00
2013-4-3,47.0,33.0,19.0,18.9,13.3,7.7,75,46,24,30.43,30.30,17,4,18,0.00
2013-4-4,58.0,39.7,27.0,24.8,17.5,13.9,66,43,20,30.40,30.01,13,4,14,0.00
2013-4-5,57.0,43.9,32.0,34.1,24.5,18.7,67,48,28,30.19,30.03,19,4,23,0.00
2013-4-6,65.0,48.1,32.0,34.8,27.0,19.1,67,45,27,30.27,29.91,18,6,19,0.00
2013-4-7,70.0,60.6,55.0,53.4,42.1,33.2,91,52,37,30.03,29.87,22,7,25,0.07
2013-4-8,70.0,59.0,50.0,53.9,51.3,47.3,100,77,55,30.05,29.88,22,5,24,0.08
2013-4-9,78.0,65.6,52.0,58.3,53.5,48.0,95,67,41,30.07,29.91,29,6,30,0.00
2013-4-10,79.0,68.4,60.0,63.0,57.7,54.9,87,70,48,29.98,29.80,28,7,33,0.00
2013-4-11,64.0,59.0,55.0,61.2,57.0,53.5,100,93,80,29.88,29.56,18,5,18,0.88
2013-4-12,55.0,43.9,38.0,55.0,37.1,29.2,100,78,61,29.97,29.55,24,9,27,0.16
2013-4-13,54.0,43.3,36.0,37.2,33.5,29.6,91,69,44,30.09,29.96,22,7,25,0.00
2013-4-14,68.0,52.1,35.0,43.2,37.5,31.5,91,61,35,30.12,29.90,15,5,16,0.00
2013-4-15,68.0,58.9,50.0,53.2,48.6,38.0,85,69,48,30.02,29.92,18,5,18,0.00
2013-4-16,77.0,61.0,54.0,61.1,56.1,51.2,100,85,55,30.20,29.97,23,6,25,0.43
2013-4-17,77.0,62.0,50.0,63.2,56.9,50.0,100,85,56,30.24,29.98,18,5,19,0.34
2013-4-18,79.0,69.7,61.0,60.7,55.0,47.5,85,62,40,30.00,29.63,29,9,30,0.01
2013-4-19,70.0,44.9,35.0,59.9,37.4,28.2,100,76,51,30.03,29.47,29,10,33,0.52
2013-4-20,46.0,37.2,31.0,33.0,27.2,21.7,96,69,42,30.47,30.02,22,7,22,0.00
2013-4-21,55.0,40.1,26.0,31.2,25.4,21.6,88,58,31,30.57,30.39,15,3,17,0.00
2013-4-22,71.0,52.9,34.0,45.2,33.1,24.6,73,49,26,30.43,30.14,12,3,12,0.00
2013-4-23,69.0,59.0,45.0,50.3,43.4,33.5,76,56,47,30.18,29.86,19,6,22,0.00
2013-4-24,62.0,46.3,34.0,55.7,41.6,31.5,100,85,58,30.28,29.81,24,8,25,0.68
2013-4-25,56.0,42.3,31.0,39.1,31.9,24.6,100,70,38,30.43,30.25,25,6,26,0.00
2013-4-26,60.0,47.0,28.0,35.0,29.7,24.0,95,54,31,30.51,30.37,9,2,10,0.00
2013-4-27,68.0,53.8,42.0,50.5,39.5,30.5,88,61,30,30.39,30.07,14,4,16,0.00
2013-4-28,67.0,56.5,52.0,59.7,54.5,49.2,100,93,69,30.09,29.84,13,4,19,0.36
2013-4-29,62.0,55.7,51.0,56.4,53.2,51.0,100,92,72,30.03,29.92,10,4,12,0.02
2013-4-30,77.0,61.9,46.0,56.5,51.7,45.0,100,73,41,30.09,29.98,12,3,12,0.00
2013-5-1,81.0,67.0,50.0,59.7,53.2,47.6,100,64,39,30.19,30.09,13,3,15,0.00
2013-5-2,73.0,64.0,56.0,55.9,51.4,48.3,78,64,47,30.25,30.11,15,4,16,0.00
2013-5-3,75.0,64.8,58.0,56.0,48.3,34.5,82,57,32,30.13,29.97,17,5,22,0.00
2013-5-4,69.0,60.5,54.0,47.1,43.4,35.6,70,54,39,30.05,29.95,16,5,19,0.00
2013-5-5,62.0,54.9,51.0,51.2,45.2,36.0,98,72,43,30.03,29.97,16,3,17,0.04
2013-5-6,60.0,53.9,50.0,58.0,53.4,49.5,100,98,89,30.01,29.95,16,3,17,0.72
2013-5-7,72.0,59.4,53.0,59.0,54.7,52.1,100,86,53,30.01,29.91,12,2,12,0.00
2013-5-8,73.0,60.3,50.0,58.2,53.8,48.9,100,82,46,30.04,29.93,18,3,18,0.00
2013-5-9,79.0,64.1,51.0,61.1,55.2,48.0,100,76,39,30.05,29.95,16,3,19,0.00
2013-5-10,67.0,60.2,56.0,62.0,59.3,55.4,100,97,78,30.03,29.83,22,4,25,0.90
2013-5-11,59.0,49.2,40.0,59.0,46.9,37.4,100,92,74,30.07,29.88,21,6,24,0.09
2013-5-12,52.0,43.9,35.0,38.7,32.6,26.3,100,68,40,30.16,30.05,22,6,22,0.01
2013-5-13,57.0,47.6,36.0,40.3,30.8,23.4,87,55,29,30.19,30.13,19,4,20,0.00
2013-5-14,79.0,61.2,41.0,57.1,43.9,28.2,68,54,39,30.19,29.82,20,6,24,0.01
2013-5-15,84.0,73.1,64.0,59.2,55.8,53.1,76,56,38,29.89,29.79,23,6,25,0.00
2013-5-16,79.0,66.3,59.0,67.0,59.9,53.6,100,81,55,30.02,29.86,18,3,19,0.19
2013-5-17,78.0,64.3,55.0,68.2,60.6,55.0,100,90,51,30.09,29.99,14,2,17,0.52
2013-5-18,79.0,65.5,59.0,67.4,61.9,59.0,100,90,58,30.09,29.97,14,2,14,0.01
2013-5-19,84.0,69.6,59.0,70.4,63.3,59.0,100,83,51,30.02,29.89,10,2,10,0.00
2013-5-20,83.0,72.9,65.0,70.0,66.2,63.3,100,81,55,30.02,29.89,15,5,19,0.00
2013-5-21,82.0,72.5,64.0,67.3,62.0,57.7,96,71,48,29.97,29.80,19,5,19,0.00
2013-5-22,77.0,66.3,61.0,68.2,61.4,58.3,100,86,56,29.88,29.74,18,5,20,0.55
2013-5-23,66.0,58.4,47.0,61.0,54.7,41.4,100,88,68,30.15,29.83,21,7,23,0.25
2013-5-24,63.0,51.1,43.0,43.9,37.8,30.2,91,63,33,30.35,30.13,18,6,19,0.00
2013-5-25,66.0,52.9,39.0,46.4,40.8,34.0,99,66,37,30.41,30.25,10,2,11,0.00
2013-5-26,71.0,57.5,45.0,46.8,42.7,37.7,99,60,37,30.32,30.19,12,2,13,0.00
2013-5-27,81.0,64.3,49.0,59.5,51.9,42.8,100,66,43,30.24,29.94,18,5,18,0.18
2013-5-28,80.0,72.1,64.0,63.9,59.2,55.5,85,65,46,30.03,29.93,20,5,24,0.00
2013-5-29,84.0,73.3,64.0,62.6,58.7,54.1,82,62,37,30.08,30.01,18,5,19,0.00
2013-5-30,85.0,74.0,65.0,65.3,63.1,60.7,91,70,49,30.15,30.00,18,4,18,0.00
2013-5-31,80.0,69.0,63.0,70.5,64.1,60.7,100,86,59,30.09,29.97,23,5,34,0.95
2013-6-1,79.0,70.7,65.0,68.2,65.5,63.0,100,84,61,29.99,29.79,24,6,25,0.00
2013-6-2,74.0,66.7,61.0,65.9,59.1,53.5,97,78,55,29.97,29.83,16,6,19,0.00
2013-6-3,68.0,57.9,49.0,54.8,50.4,45.9,95,77,54,30.11,29.97,17,4,17,0.00
2013-6-4,76.0,59.8,45.0,53.8,44.9,34.5,100,64,29,30.17,30.06,14,2,16,0.00
2013-6-5,84.0,67.1,52.0,64.5,53.5,46.7,93,64,38,30.13,29.86,11,2,13,0.00
2013-6-6,71.0,62.8,59.0,68.2,62.2,58.2,100,98,81,29.89,29.79,14,3,17,0.34
2013-6-7,73.0,60.6,55.0,59.4,55.4,52.1,100,85,49,29.95,29.80,12,3,13,0.00
2013-6-8,75.0,62.8,51.0,62.4,56.2,50.7,100,80,56,30.06,29.93,10,2,11,0.00
2013-6-9,82.0,69.5,61.0,64.5,61.3,55.9,98,77,46,30.09,29.92,10,3,13,0.00
2013-6-10,77.0,65.6,61.0,70.5,63.0,57.3,100,92,57,29.93,29.79,19,4,23,0.46
2013-6-11,83.0,69.9,60.0,68.3,63.4,58.3,100,82,47,29.97,29.88,13,4,14,0.04
2013-6-12,87.0,77.1,68.0,73.4,68.5,63.7,92,76,54,29.93,29.71,17,4,17,0.00
2013-6-13,78.0,68.0,61.0,70.2,59.5,51.5,100,76,48,29.95,29.62,24,7,24,1.33
2013-6-14,77.0,65.1,53.0,59.1,54.8,51.0,100,71,44,30.09,29.95,15,4,15,0.00
2013-6-15,82.0,68.7,53.0,62.5,58.2,52.5,100,72,46,30.14,29.95,12,3,13,0.00
2013-6-16,73.0,67.8,64.0,67.3,63.3,60.0,100,86,72,30.03,29.95,15,4,16,0.04
2013-6-17,87.0,72.5,64.0,70.0,65.1,58.6,100,80,44,30.00,29.86,16,2,16,0.00
2013-6-18,82.0,69.2,61.0,69.4,62.4,55.8,100,80,51,30.04,29.85,14,3,17,0.70
2013-6-19,81.0,66.1,53.0,59.9,53.6,47.3,100,68,38,30.16,30.03,13,2,14,0.00
2013-6-20,86.0,69.8,53.0,65.0,56.7,51.6,100,67,36,30.21,30.13,9,2,9,0.00
2013-6-21,87.0,76.0,55.0,67.8,60.7,54.3,100,62,40,30.24,30.11,11,2,11,0.00
2013-6-22,86.0,74.2,65.0,69.8,66.1,62.7,100,78,52,30.17,30.04,13,4,14,0.01
2013-6-23,87.0,73.2,63.0,71.7,65.2,60.7,100,79,45,30.14,30.03,27,3,27,0.00
2013-6-24,85.0,73.5,64.0,72.3,66.4,61.3,100,80,45,30.15,30.01,14,3,15,0.04
2013-6-25,87.0,76.4,65.0,72.3,67.8,65.0,100,77,50,30.08,29.87,17,4,17,0.00
2013-6-26,84.0,71.4,64.0,70.8,67.0,63.0,100,87,60,29.97,29.79,19,4,21,0.22
2013-6-27,81.0,71.2,64.0,71.3,66.8,64.0,100,87,62,29.82,29.71,15,4,18,0.04
2013-6-28,80.0,70.0,61.0,68.6,63.6,52.5,100,82,46,29.72,29.58,30,6,34,0.07
2013-6-29,77.0,65.7,59.0,67.3,61.9,59.0,100,89,59,29.70,29.59,11,3,12,0.02
2013-6-30,81.0,66.7,60.0,67.4,63.2,57.7,100,90,49,29.87,29.69,16,2,16,0.15
2013-7-1,78.0,65.5,60.0,68.9,64.0,60.0,100,95,66,29.95,29.85,12,3,14,0.12
2013-7-2,84.0,70.5,62.0,70.5,64.5,62.0,100,83,52,30.04,29.93,10,2,12,0.03
2013-7-3,80.0,71.5,65.0,69.0,65.7,62.5,100,83,57,30.13,30.03,11,3,15,0.01
2013-7-4,69.0,66.3,65.0,68.0,66.3,65.0,100,100,96,30.18,30.09,11,2,11,1.38
2013-7-5,79.0,68.6,63.0,69.9,66.2,63.0,100,93,69,30.17,30.09,10,3,14,0.12
2013-7-6,76.0,68.0,65.0,73.8,67.8,65.0,100,99,90,30.15,30.03,15,3,15,1.58
2013-7-7,82.0,69.4,61.0,68.9,64.9,61.0,100,87,56,30.13,30.01,13,3,14,0.00
2013-7-8,83.0,74.2,65.0,72.2,68.0,65.0,100,82,61,30.14,30.02,13,4,15,0.00
2013-7-9,85.0,75.8,69.0,72.8,70.3,66.2,100,84,59,30.09,29.99,19,4,25,0.18
2013-7-10,86.0,73.8,64.0,75.8,70.7,64.0,100,91,66,30.01,29.83,26,4,36,0.41
2013-7-11,79.0,68.5,59.0,65.9,61.2,52.5,100,79,54,30.06,29.96,16,3,17,0.00
2013-7-12,81.0,67.2,54.0,61.1,56.7,50.1,100,72,43,30.12,30.02,13,2,14,0.00
2013-7-13,83.0,70.9,60.0,66.9,62.7,58.6,100,77,51,30.17,30.07,14,2,15,0.00
2013-7-14,87.0,76.2,64.0,73.8,68.6,64.0,100,79,57,30.24,30.14,11,3,13,0.00
2013-7-15,92.0,79.2,69.0,73.1,68.7,63.4,100,73,42,30.31,30.20,12,2,12,0.00
2013-7-16,93.0,79.9,67.0,78.0,70.5,65.6,100,76,44,30.33,30.23,7,1,7,0.00
2013-7-17,90.0,79.0,69.0,77.0,70.4,66.5,100,77,50,30.33,30.17,12,2,12,0.00
2013-7-18,91.0,80.1,68.0,78.0,68.9,60.3,100,72,38,30.23,30.01,9,2,10,0.00
2013-7-19,86.0,76.5,67.0,76.0,71.8,64.9,100,86,62,30.08,29.90,26,4,26,0.60
2013-7-20,84.0,73.3,67.0,76.8,70.5,65.2,100,92,64,29.96,29.86,32,3,32,0.53
2013-7-21,88.0,73.0,64.0,74.0,68.5,64.0,100,87,54,29.99,29.89,12,1,12,0.00
2013-7-22,77.0,69.9,67.0,75.0,69.0,66.8,100,97,77,29.95,29.78,12,2,14,0.52
2013-7-23,83.0,72.0,65.0,73.2,68.1,62.7,100,88,66,29.87,29.74,16,4,18,0.03
2013-7-24,78.0,64.6,56.0,62.7,57.3,52.8,100,79,53,30.05,29.85,12,4,14,0.00
2013-7-25,80.0,64.3,49.0,61.5,54.4,49.0,100,74,41,30.13,30.04,11,1,12,0.00
2013-7-26,80.0,67.0,51.0,67.4,56.8,51.0,100,74,44,30.14,29.99,10,2,12,0.00
2013-7-27,75.0,65.3,60.0,67.0,59.8,52.2,100,84,50,30.00,29.84,18,4,18,0.50
2013-7-28,70.0,60.6,51.0,55.8,51.0,46.0,100,73,48,30.09,29.94,15,4,17,0.00
2013-7-29,73.0,63.0,52.0,57.7,53.6,49.5,100,73,50,30.23,30.09,15,4,17,0.00
2013-7-30,79.0,66.3,53.0,70.0,58.1,52.8,100,78,44,30.26,30.15,8,1,9,0.00
2013-7-31,74.0,66.8,62.0,67.1,63.9,61.6,100,91,73,30.15,29.97,10,3,11,0.01
2013-8-1,77.0,68.8,62.0,67.0,61.5,52.5,100,80,48,30.01,29.93,14,5,17,0.00
2013-8-2,81.0,68.4,54.0,65.0,59.0,54.0,100,75,47,30.04,29.95,14,3,14,0.00
2013-8-3,79.0,68.8,63.0,68.6,64.0,57.1,100,86,53,30.06,29.97,11,3,14,0.09
2013-8-4,76.0,65.4,55.0,61.5,55.8,51.3,96,73,46,30.16,30.06,16,3,17,0.01
2013-8-5,78.0,64.8,52.0,65.9,56.0,50.6,100,76,43,30.16,29.99,9,2,10,0.00
2013-8-6,81.0,69.4,59.0,67.6,61.2,55.1,98,77,53,30.03,29.92,12,3,13,0.00
2013-8-7,83.0,73.1,65.0,72.7,69.1,65.0,100,88,62,29.97,29.87,10,3,12,0.00
2013-8-8,80.0,70.7,66.0,74.5,70.0,66.0,100,98,74,29.97,29.91,14,2,16,0.00
2013-8-9,82.0,70.5,67.0,71.9,68.0,63.9,100,93,60,30.06,29.93,10,2,11,0.24
2013-8-10,85.0,72.5,63.0,73.8,66.5,62.0,100,84,52,30.12,30.03,7,1,8,0.00
2013-8-11,82.0,71.9,63.0,75.0,65.7,60.4,100,83,55,30.11,30.03,14,3,14,0.00
2013-8-12,85.0,71.3,60.0,72.1,64.5,59.5,100,82,45,30.11,29.90,10,2,11,0.01
2013-8-13,74.0,67.2,55.0,69.0,59.8,46.5,100,79,55,30.10,29.88,18,6,19,0.01
2013-8-14,71.0,57.6,47.0,53.2,48.6,43.6,100,75,43,30.22,30.10,16,2,20,0.00
2013-8-15,76.0,59.7,44.0,62.7,51.5,44.0,100,78,45,30.22,30.08,10,1,10,0.00
2013-8-16,79.0,64.0,52.0,62.9,54.2,49.8,100,74,43,30.20,30.11,10,1,13,0.00
2013-8-17,82.0,66.4,54.0,65.4,57.5,51.2,100,76,46,30.22,30.11,12,2,13,0.00
2013-8-18,82.0,67.8,55.0,70.0,60.0,54.1,100,80,44,30.21,30.08,10,2,10,0.00
2013-8-19,86.0,69.1,56.0,71.5,59.9,53.0,100,77,40,30.18,30.05,10,1,12,0.00
2013-8-20,84.0,70.6,57.0,73.1,61.3,56.1,100,76,44,30.18,30.08,12,2,12,0.00
2013-8-21,86.0,71.8,62.0,71.0,65.9,60.0,100,83,55,30.19,30.05,10,2,12,0.00
2013-8-22,81.0,70.0,63.0,70.7,66.8,63.0,100,91,59,30.13,30.05,16,4,17,0.04
2013-8-23,87.0,71.5,63.0,68.7,64.2,59.3,100,81,44,30.18,30.03,11,2,11,0.01
2013-8-24,86.0,69.7,55.0,67.2,59.6,53.1,99,73,40,30.28,30.18,11,2,11,0.00
2013-8-25,86.0,71.2,56.0,69.0,58.5,46.6,100,70,29,30.37,30.21,9,2,11,0.00
2013-8-26,84.0,72.6,58.0,69.8,64.6,58.0,100,78,49,30.28,30.07,15,4,15,0.00
2013-8-27,87.0,76.3,67.0,72.6,69.7,65.9,100,81,57,30.09,29.95,10,3,11,0.00
2013-8-28,87.0,77.5,71.0,72.5,70.8,67.6,100,81,58,29.99,29.87,21,6,21,0.00
2013-8-29,86.0,72.6,65.0,71.0,67.8,64.8,100,87,56,30.08,29.98,12,1,12,0.00
2013-8-30,89.0,73.8,62.0,74.0,65.0,60.7,100,77,44,30.03,29.84,11,2,11,0.00
2013-8-31,87.0,73.9,66.0,74.0,69.1,63.8,100,86,62,29.91,29.78,16,4,19,0.22
2013-9-1,85.0,71.9,63.0,70.0,66.6,63.0,100,85,56,29.87,29.75,13,3,13,0.01
2013-9-2,80.0,71.6,64.0,72.5,65.9,56.7,100,84,57,29.92,29.80,16,5,17,0.00
2013-9-3,74.0,62.0,53.0,58.3,54.0,49.4,100,77,47,30.11,29.92,14,4,17,0.00
2013-9-4,80.0,63.9,48.0,65.3,54.6,48.0,100,76,44,30.17,30.08,12,2,12,0.00
2013-9-5,82.0,67.5,53.0,64.0,56.4,45.6,100,71,42,30.24,30.11,16,2,19,0.00
2013-9-6,81.0,62.7,47.0,56.8,47.9,39.2,100,64,24,30.29,30.11,11,1,14,0.00
2013-9-7,83.0,67.6,51.0,64.6,56.0,45.7,100,69,45,30.15,29.95,12,3,13,0.00
2013-9-8,90.0,74.0,64.0,69.2,64.7,59.8,100,76,41,30.03,29.91,9,2,10,0.00
2013-9-9,89.0,75.3,63.0,70.4,65.6,60.7,100,75,40,30.05,29.94,13,4,15,0.00
2013-9-10,91.0,78.3,70.0,71.9,69.5,66.9,97,76,49,30.15,30.03,13,4,14,0.00
2013-9-11,90.0,76.8,67.0,74.8,68.6,64.9,100,78,46,30.17,30.00,11,4,14,0.01
2013-9-12,76.0,70.0,61.0,70.1,67.0,60.4,100,91,62,30.03,29.87,15,4,17,0.73
2013-9-13,62.0,55.2,47.0,60.7,47.3,40.8,99,77,49,30.14,29.95,17,6,19,0.00
2013-9-14,71.0,53.4,38.0,52.7,43.2,38.0,100,73,35,30.21,30.09,13,2,13,0.00
2013-9-15,75.0,59.0,42.0,57.5,48.6,41.5,100,72,40,30.19,30.02,16,2,16,0.06
2013-9-16,70.0,59.4,52.0,59.4,54.2,49.3,100,85,54,30.33,30.11,13,2,13,0.01
2013-9-17,75.0,59.2,46.0,54.1,50.4,46.0,100,76,40,30.36,30.17,12,3,13,0.00
2013-9-18,80.0,64.1,54.0,65.4,57.4,50.8,100,82,45,30.21,30.04,11,3,13,0.00
2013-9-19,77.0,66.8,61.0,71.0,64.0,61.0,100,92,63,30.11,29.99,12,4,13,0.17
2013-9-20,83.0,70.0,64.0,69.0,65.4,63.0,100,88,54,30.03,29.80,24,5,24,2.38
2013-9-21,69.0,62.1,54.0,65.0,56.0,46.6,100,83,50,29.92,29.73,18,6,19,0.89
2013-9-22,66.0,53.9,44.0,51.0,44.9,41.3,100,75,42,30.07,29.92,15,3,16,0.00
2013-9-23,70.0,53.6,40.0,51.2,45.1,40.0,100,76,44,30.16,30.05,12,2,13,0.00
2013-9-24,75.0,56.1,40.0,59.2,47.8,40.0,100,77,47,30.16,29.92,11,2,12,0.00
2013-9-25,74.0,57.7,48.0,58.8,50.8,46.4,100,80,46,29.99,29.87,9,1,10,0.00
2013-9-26,80.0,61.3,45.0,65.0,52.3,44.1,100,76,40,30.12,29.98,10,1,10,0.00
2013-9-27,81.0,62.5,45.0,59.7,49.4,43.2,100,67,30,30.21,30.08,8,1,8,0.00
2013-9-28,80.0,63.1,46.0,61.3,51.6,45.8,100,70,35,30.23,30.06,12,2,12,0.00
2013-9-29,67.0,60.3,56.0,61.1,57.7,52.7,100,91,69,30.10,30.03,15,4,18,0.06
2013-9-30,69.0,61.0,58.0,62.7,59.7,57.6,100,96,76,30.06,29.97,12,3,14,0.03
2013-10-1,75.0,64.3,56.0,66.0,59.4,56.0,100,86,58,30.11,30.01,12,3,17,0.00
2013-10-2,80.0,66.7,57.0,68.0,62.8,57.0,100,89,60,30.14,30.04,9,2,10,0.00
2013-10-3,77.0,67.3,62.0,73.0,66.0,62.0,100,96,72,30.12,30.00,11,3,16,0.84
2013-10-4,80.0,68.4,61.0,72.0,65.5,61.0,100,91,64,30.11,30.01,12,3,14,0.03
2013-10-5,77.0,68.8,64.0,70.7,66.9,64.0,100,94,72,30.09,29.97,13,5,15,0.26
2013-10-6,69.0,60.9,50.0,67.7,60.7,50.0,100,99,91,29.98,29.73,19,5,26,2.18
2013-10-7,58.0,49.0,41.0,52.0,44.0,40.9,100,84,57,30.21,29.86,18,5,19,0.01
2013-10-8,69.0,51.6,38.0,55.7,43.2,38.0,100,77,38,30.30,30.19,12,2,13,0.00
2013-10-9,73.0,55.5,41.0,52.1,45.5,40.5,100,73,35,30.29,30.14,9,2,11,0.00
2013-10-10,76.0,55.7,39.0,54.5,43.6,37.8,100,70,29,30.24,30.08,10,1,10,0.00
2013-10-11,80.0,59.5,42.0,57.4,48.0,41.5,100,71,32,30.15,30.00,9,1,9,0.00
2013-10-12,79.0,61.8,47.0,63.0,54.6,46.7,100,80,46,30.16,30.03,8,2,9,0.00
2013-10-13,70.0,58.4,49.0,60.6,51.2,39.5,100,80,46,30.34,30.16,13,3,14,0.00
2013-10-14,72.0,55.6,42.0,52.4,44.4,39.5,100,69,35,30.37,30.19,10,2,10,0.00
2013-10-15,71.0,58.7,45.0,62.8,56.1,44.5,100,92,70,30.24,29.97,13,3,15,0.03
2013-10-16,66.0,58.9,44.0,61.1,55.1,41.1,100,88,57,30.02,29.90,13,4,14,0.08
2013-10-17,53.0,45.0,38.0,50.2,43.5,38.0,100,95,80,30.03,29.90,17,3,18,0.08
2013-10-18,63.0,49.7,40.0,51.0,42.8,39.7,100,80,47,30.08,29.95,15,4,16,0.01
2013-10-19,50.0,43.2,38.0,44.7,41.4,36.6,100,94,74,30.05,29.89,17,4,20,0.15
2013-10-20,60.0,45.9,35.0,42.8,38.7,35.0,100,79,49,30.07,29.99,17,6,18,0.00
2013-10-21,63.0,51.1,41.0,48.2,40.7,36.8,100,69,45,30.05,29.90,19,6,19,0.01
2013-10-22,52.0,41.5,30.0,43.2,29.9,22.6,97,66,35,30.10,29.91,16,4,17,0.03
2013-10-23,43.0,37.7,32.0,38.0,33.6,27.2,100,86,59,30.08,29.81,13,5,18,0.21
2013-10-24,40.0,36.0,32.0,35.0,32.5,29.5,100,87,70,30.31,30.08,17,5,20,0.08
2013-10-25,47.0,35.3,25.0,32.2,27.3,23.0,100,75,40,30.47,30.31,14,4,14,0.01
2013-10-26,48.0,38.1,28.0,37.2,30.0,25.5,93,74,55,30.33,29.95,19,5,22,0.00
2013-10-27,57.0,41.6,27.0,41.1,33.2,27.0,100,76,41,30.15,30.06,13,2,13,0.00
2013-10-28,64.0,43.9,28.0,39.9,33.2,28.0,100,72,33,30.35,30.15,9,1,10,0.00
2013-10-29,56.0,45.2,33.0,45.0,39.3,31.0,100,81,61,30.40,30.25,8,1,8,0.00
2013-10-30,60.0,54.7,48.0,60.0,54.5,44.1,100,99,83,30.25,30.02,11,2,12,0.12
2013-10-31,61.0,59.2,54.0,61.0,58.2,54.0,100,96,84,30.03,29.38,34,8,34,1.38
2013-11-1,59.0,52.9,46.0,54.0,46.4,39.9,100,80,51,29.80,29.46,25,7,25,0.07
2013-11-2,52.0,46.5,42.0,42.5,38.9,32.6,94,75,53,30.13,29.79,19,7,19,0.00
2013-11-3,55.0,42.8,36.0,43.0,37.2,33.3,100,82,51,30.41,30.13,15,3,19,0.00
2013-11-4,55.0,45.0,35.0,41.3,36.0,30.7,97,72,51,30.45,30.32,13,4,15,0.00
2013-11-5,60.0,51.6,46.0,44.2,40.7,36.2,92,67,49,30.44,30.25,12,3,12,0.01
2013-11-6,63.0,53.8,42.0,57.0,46.7,35.4,100,79,56,30.27,30.00,28,7,28,0.33
2013-11-7,46.0,39.9,35.0,42.0,31.7,22.6,100,75,44,30.29,30.08,19,7,19,0.08
2013-11-8,47.0,36.8,26.0,33.1,28.7,25.2,100,75,46,30.40,30.23,15,4,17,0.00
2013-11-9,58.0,46.2,35.0,38.7,31.4,25.2,72,57,40,30.29,30.02,22,7,27,0.00
2013-11-10,49.0,40.7,29.0,39.2,30.4,25.7,93,67,50,30.40,30.12,22,7,23,0.00
2013-11-11,48.0,38.3,27.0,43.5,32.9,25.5,100,83,51,30.38,30.11,20,5,21,0.09
2013-11-12,34.0,25.4,21.0,30.0,21.8,17.4,100,87,59,30.66,30.27,20,7,22,0.03
2013-11-13,38.0,26.3,17.0,23.8,18.7,14.6,100,76,40,30.68,30.44,15,4,15,0.00
2013-11-14,52.0,36.4,24.0,23.5,19.2,15.2,84,54,25,30.45,30.19,19,6,22,0.00
2013-11-15,49.0,42.3,36.0,41.5,26.7,17.6,91,55,40,30.23,30.13,16,6,20,0.00
2013-11-16,58.0,52.0,43.0,54.5,49.8,40.8,100,92,86,30.17,29.94,17,6,20,0.00
2013-11-17,60.0,56.6,49.0,60.0,54.1,37.5,100,92,59,29.95,29.54,30,10,31,1.07
2013-11-18,50.0,42.4,32.0,39.5,33.1,26.1,93,71,52,30.25,29.80,27,9,29,0.00
2013-11-19,41.0,31.3,24.0,29.2,26.4,24.0,100,83,58,30.41,30.23,14,3,14,0.00
2013-11-20,50.0,35.3,24.0,31.7,27.5,23.0,99,75,48,30.41,30.24,17,4,19,0.00
2013-11-21,55.0,46.5,38.0,48.7,37.7,27.9,99,72,57,30.36,30.21,15,4,15,0.03
2013-11-22,51.0,45.0,34.0,51.0,43.3,28.2,100,94,79,30.42,30.20,22,7,23,0.15
2013-11-23,35.0,26.2,16.0,28.5,20.8,7.1,100,81,51,30.61,30.37,27,8,27,0.00
2013-11-24,23.0,15.9,9.0,14.1,10.8,7.6,100,81,56,30.72,30.56,18,4,19,0.00
2013-11-25,34.0,25.3,14.0,27.4,16.3,11.7,97,71,42,30.58,30.23,19,4,19,0.00
2013-11-26,32.0,29.2,27.0,32.0,28.9,25.5,100,99,91,30.25,29.97,13,3,16,0.04
2013-11-27,29.0,23.2,18.0,28.0,18.5,13.2,99,82,64,30.33,29.95,22,10,25,0.00
2013-11-28,32.0,22.2,15.0,17.2,14.9,10.9,96,75,47,30.48,30.30,19,5,20,0.00
2013-11-29,39.0,25.5,15.0,22.9,18.7,12.8,100,77,46,30.66,30.47,10,3,10,0.00
2013-11-30,48.0,33.4,22.0,28.3,24.3,19.3,96,72,42,30.56,30.21,11,4,13,0.00
2013-12-1,48.0,40.0,34.0,35.3,30.6,25.3,94,69,57,30.21,30.01,13,4,14,0.00
2013-12-2,49.0,38.2,30.0,38.7,35.0,30.0,100,89,66,30.02,29.83,9,2,10,0.04
2013-12-3,50.0,40.1,31.0,48.0,39.5,31.0,100,98,85,29.93,29.82,10,3,12,0.01
2013-12-4,59.0,52.2,45.0,56.1,50.9,43.9,100,96,88,29.91,29.75,17,5,19,0.00
2013-12-5,60.0,45.1,28.0,59.2,43.4,27.3,100,94,78,30.20,29.77,21,7,21,0.22
2013-12-6,28.0,24.3,22.0,28.0,24.3,22.0,100,100,98,30.44,30.17,13,6,15,0.00
2013-12-7,26.0,18.4,11.0,22.0,16.6,10.0,100,93,68,30.65,30.42,12,3,12,0.09
2013-12-8,28.0,20.7,12.0,28.0,20.4,12.0,100,99,94,30.62,30.06,14,3,15,0.00
2013-12-9,29.0,25.5,19.0,29.0,24.3,16.2,100,95,85,30.29,30.03,20,7,20,0.00
2013-12-10,25.0,18.3,14.0,18.3,14.5,10.9,100,86,59,30.40,30.18,21,6,23,0.00
2013-12-11,32.0,18.7,10.0,21.6,15.3,10.0,100,88,58,30.56,30.29,21,6,23,0.03
2013-12-12,20.0,11.6,1.0,11.3,5.7,-0.2,100,80,43,30.62,30.39,14,4,14,0.00
2013-12-13,36.0,24.6,14.0,30.0,16.7,7.8,100,73,50,30.41,30.21,15,4,15,0.04
2013-12-14,34.0,30.8,26.0,34.0,30.8,26.0,100,100,100,30.23,29.77,19,6,20,0.78
2013-12-15,29.0,23.1,22.0,26.0,21.3,15.6,100,93,76,30.18,29.88,23,9,24,0.00
2013-12-16,28.0,23.6,22.0,28.0,23.5,21.0,100,100,94,30.19,30.05,15,3,15,0.05
2013-12-17,32.0,25.5,22.0,31.0,25.0,22.0,100,98,89,30.22,30.04,20,7,20,0.01
2013-12-18,33.0,24.6,16.0,22.0,18.0,15.0,100,78,51,30.31,30.10,20,6,20,0.01
2013-12-19,49.0,41.2,31.0,39.2,29.7,17.7,76,63,57,30.12,30.00,18,6,18,0.04
2013-12-20,57.0,50.9,47.0,57.0,45.3,34.9,100,83,58,30.01,29.86,20,8,24,0.01
2013-12-21,64.0,57.2,53.0,62.8,57.1,53.0,100,100,95,29.87,29.49,27,8,28,1.94
2013-12-22,59.0,49.7,35.0,59.0,47.8,35.0,100,93,73,30.10,29.54,24,8,27,0.66
2013-12-23,36.0,27.7,22.0,35.0,24.3,17.4,100,87,75,30.44,30.08,19,9,20,0.02
2013-12-24,22.0,13.8,9.0,20.0,12.0,7.9,100,92,76,30.62,30.41,19,6,19,0.00
2013-12-25,30.0,21.9,13.0,23.2,16.0,11.0,100,80,53,30.59,30.24,16,5,16,0.00
2013-12-26,37.0,29.6,25.0,26.7,21.3,16.9,91,72,47,30.41,30.23,22,7,23,0.00
2013-12-27,46.0,34.1,26.0,30.3,25.8,21.7,91,73,52,30.44,30.33,13,5,13,0.00
2013-12-28,51.0,39.2,31.0,32.9,28.7,26.3,87,67,47,30.36,30.08,16,5,18,0.00
2013-12-29,41.0,35.7,29.0,41.0,33.5,25.9,100,93,59,30.09,29.85,22,6,23,0.39
2013-12-30,30.0,22.8,18.0,28.0,20.3,15.2,100,90,74,30.31,30.07,19,6,19,0.00
2013-12-31,30.0,22.8,18.0,20.8,16.5,13.4,93,77,60,30.42,30.23,20,7,23,0.00
2014-1-1,43.0,30.5,21.0,29.0,24.3,19.0,100,79,52,30.35,30.08,14,3,14,0.00
2014-1-2,31.0,19.0,5.0,28.8,19.0,5.0,100,100,98,30.34,29.90,25,8,25,0.00